Location: Bronnegerveen
(52.9548°N, 6.8388°E)
Time: 02:15:13
(UTC+00:00)

SJ 16-02 - Pass Details

Date: 15 June 2025
Orbit: 587 x 596 km, 75.0° (Epoch: 07 July)

Event Time Altitude Azimuth Distance (km) Brightness Sun altitude
Exits shadow 01:52:08 - 257° (WSW) 2,711 4.2 -8.0°
Reaches altitude 10° 01:54:46 10° 277° (W) 1,940 3.7 -7.8°
Maximum altitude 01:57:27 16° 316° (NW) 1,590 3.6 -7.5°
Drops below altitude 10° 02:00:09 10° 354° (N) 1,946 4.8 -7.3°
Sets 02:03:11 0° 17° (NNE) 2,851 6.5 -7.1°
